User: anonymous   Login
Location: Unspecified
(0.0000°N, 0.0000°E)
Time: 18:19:04
(UTC+00:00)
Language:

AAC-HSI-SAT1 - Orbit

View from above orbital plane
View from above orbital plane
View from above satellite
View from above satellite

Ground track
Ground track

The orbit is defined by the following mean orbital elements,

1 56225U          26145.53714543 +.00000000 +00000-0 +10648-3 0 00005
2 56225  97.3719  22.6895 0009270 193.6892 166.4089 15.12428567    01
Epoch (UTC): 25 May 2026 12:53:29
Eccentricity: 0.0009270
inclination: 97.3719°
perigee height: 522 km
apogee height: 535 km
right ascension of ascending node: 22.6895°
argument of perigee: 193.6892°
revolutions per day: 15.12428567
mean anomaly at epoch: 166.4089°

The dashed part of the orbit path shows where the satellite is in the earth's shadow,  

DLR